Weather History for Mombasa, Kenya

Change the Weather History Date:

Sunday, October 23, 2011

  Actual Average Record
Temperature  
Mean Temperature 80 °F -  
Max Temperature 86 °F 89 °F 87 °F (2008)
Min Temperature 74 °F 72 °F 68 °F (1999)
Cooling Degree Days 15    
Growing Degree Days 30 (Base 50)    
Moisture  
Dew Point 72 °F    
Average Humidity 75    
Maximum Humidity 94    
Minimum Humidity 56    
Precipitation  
Precipitation 0.00 in 0.14 in - ()
Sea Level Pressure  
Sea Level Pressure 29.85 in    
Wind  
Wind Speed 7 mph ()    
Max Wind Speed 16 mph    
Max Gust Speed -    
Visibility 8.2 miles    
Events      
Averages and records for this station are not official NWS values.
T = Trace of Precipitation, MM = Missing Value Source: Averaged Metar Reports

Daily Weather History Graph

Daily Weather History Graph

Search for Another Location

Airport:

Trip Planner

Search our weather history database for the weather conditions in past years. The results will help you decide how hot, cold, wet, or windy it might be!

Date:

Astronomy

Oct. 23, 2011 Rise Set
Actual Time 5:59 AM EAT 6:12 PM EAT
Civil Twilight 5:38 AM EAT 6:33 PM EAT
Nautical Twilight 5:13 AM EAT 6:58 PM EAT
Astronomical Twilight 4:48 AM EAT 7:23 PM EAT
Moon 2:40 AM EAT (10/23) 3:02 PM EAT (10/23)
Length of Visible Light 12h 55m
Length of Day
12h 13m
Waning Crescent, 17% of the Moon is Illuminated
Oct 23
Waning Crescent
Oct 26
New
Nov 2
First Quarter
Nov 10
Full
Nov 18
Last Quarter

Hourly Weather History & Observations

Time (EAT) Temp. Heat Index Dew Point Humidity Pressure Visibility Wind Dir Wind Speed Gust Speed Precip Events Conditions
12:00 AM 78.8 °F - 73.4 °F 83% 29.86 in - North - - N/A   Scattered Clouds
2:00 AM 77.0 °F - 71.6 °F 83% 29.83 in 6.2 mi South 5.8 mph - N/A   Partly Cloudy
3:00 AM - - - % 29.83 in 19 mi South 5.8 mph - -   Partly Cloudy
3:00 AM - - - N/A% 29.83 in 6.2 mi South 5.8 mph - N/A   Scattered Clouds
4:00 AM 75.2 °F - 73.4 °F 94% 29.86 in 6.2 mi Calm Calm - N/A   Scattered Clouds
5:00 AM 75.2 °F - 73.4 °F 94% 29.86 in 6.2 mi WSW 4.6 mph - N/A   Scattered Clouds
6:00 AM 75.2 °F - 73.4 °F 94% 29.86 in 6.2 mi Calm Calm - N/A   Mostly Cloudy
7:00 AM 75.2 °F - 73.4 °F 94% 29.89 in 6.2 mi WSW 6.9 mph - N/A   Partly Cloudy
8:00 AM 77.0 °F - 73.4 °F 89% 29.89 in 6.2 mi SW 8.1 mph - N/A   Partly Cloudy
9:00 AM 81 °F - 73 °F 71% 29.91 in 19 mi SSW 10.4 mph - -   Partly Cloudy
9:00 AM 80.6 °F 85.4 °F 73.4 °F 79% 29.92 in 6.2 mi SSW 10.4 mph - N/A   Scattered Clouds
10:00 AM 84.2 °F 88.4 °F 69.8 °F 62% 29.92 in 6.2 mi South 9.2 mph - N/A   Scattered Clouds
11:00 AM 86.0 °F 90.4 °F 69.8 °F 58% 29.89 in 6.2 mi South 10.4 mph - N/A   Scattered Clouds
1:00 PM 86.0 °F 90.4 °F 69.8 °F 58% 29.83 in 6.2 mi South 9.2 mph - N/A   Partly Cloudy
2:00 PM 86.0 °F 90.4 °F 69.8 °F 58% 29.80 in 6.2 mi South 15.0 mph - N/A   Partly Cloudy
3:00 PM 84 °F - 71 °F 56% 29.80 in 19 mi South 16.1 mph - -   Scattered Clouds
3:00 PM 84.2 °F 89.6 °F 71.6 °F 66% 29.80 in 6.2 mi South 16.1 mph - N/A   Partly Cloudy
4:00 PM 84.2 °F 89.6 °F 71.6 °F 66% 29.77 in 6.2 mi South 11.5 mph - N/A   Partly Cloudy
5:00 PM 82.4 °F 86.3 °F 69.8 °F 66% 29.77 in 6.2 mi SSE 13.8 mph - N/A   Partly Cloudy
6:00 PM 80.6 °F 84.6 °F 71.6 °F 74% 29.80 in 6.2 mi South 9.2 mph - N/A   Partly Cloudy
7:00 PM 78.8 °F - 71.6 °F 78% 29.80 in 6.2 mi South 5.8 mph - N/A   Partly Cloudy
8:00 PM 78.8 °F - 71.6 °F 78% 29.83 in 6.2 mi South 6.9 mph - N/A   Partly Cloudy
9:00 PM 79 °F - 72 °F 74% 29.86 in 19 mi SSE 10.4 mph - -   Scattered Clouds
9:00 PM 78.8 °F - 71.6 °F 78% 29.86 in 6.2 mi SSE 10.4 mph - N/A   Partly Cloudy
10:00 PM 78.8 °F - 71.6 °F 78% 29.89 in 6.2 mi SSE 5.8 mph - N/A   Partly Cloudy
11:00 PM 78.8 °F - 71.6 °F 78% 29.86 in 6.2 mi Calm Calm - N/A   Partly Cloudy